timestamp,wind_dir_avg,wind_spd_avg,wind_spd_max_dir,wind_spd_gust,battery_voltage,lat,long
2022-07-10 00:04:00+00:00,218.0,9.19,222.0,11.3,13.13,47.59359,-54.27349
2022-07-10 00:14:01+00:00,221.0,7.84,222.0,9.54,12.65,47.59359,-54.27349
2022-07-10 00:24:01+00:00,221.0,8.85,222.0,10.17,12.65,47.59359,-54.27349
2022-07-10 00:34:01+00:00,219.0,8.74,222.0,10.85,12.65,47.59359,-54.27349
2022-07-10 00:44:01+00:00,215.0,7.5,217.0,8.71,12.65,47.59359,-54.27349
2022-07-10 00:54:01+00:00,223.0,8.14,226.0,8.94,12.65,47.59359,-54.27349
2022-07-10 01:04:01+00:00,215.0,8.11,222.0,10.0,12.65,47.59359,-54.27349
2022-07-10 01:14:00+00:00,216.0,7.88,217.0,9.31,12.41,47.59359,-54.27349
2022-07-10 01:24:00+00:00,214.0,7.36,213.0,8.0,12.41,47.59359,-54.27349
2022-07-10 01:34:00+00:00,215.0,8.06,219.0,9.1,12.41,47.59359,-54.27349
2022-07-10 01:44:00+00:00,214.0,8.02,216.0,10.0,12.41,47.59359,-54.27349
2022-07-10 01:54:00+00:00,214.0,7.28,214.0,7.91,12.41,47.59359,-54.27349
2022-07-10 02:04:00+00:00,213.0,7.55,224.0,8.49,12.41,47.59359,-54.27349
2022-07-10 02:14:00+00:00,210.0,7.46,211.0,8.23,12.41,47.59359,-54.27349
2022-07-10 02:24:00+00:00,212.0,7.48,213.0,7.92,12.41,47.59359,-54.27349
2022-07-10 02:34:00+00:00,213.0,6.57,212.0,7.23,12.41,47.59359,-54.27349
2022-07-10 02:44:00+00:00,211.0,6.0,210.0,6.57,12.41,47.59359,-54.27349
2022-07-10 02:54:00+00:00,204.0,5.34,201.0,6.05,12.41,47.59359,-54.27349
2022-07-10 03:04:00+00:00,220.0,4.16,228.0,4.73,12.41,47.59359,-54.27349
2022-07-10 03:14:00+00:00,221.0,4.08,227.0,5.19,12.41,47.59359,-54.27349
2022-07-10 03:24:00+00:00,236.0,5.0,246.0,6.61,12.41,47.59359,-54.27349
2022-07-10 03:34:00+00:00,242.0,6.85,236.0,7.84,12.41,47.59359,-54.27349
2022-07-10 03:44:00+00:00,233.0,5.82,233.0,7.49,12.41,47.59359,-54.27349
2022-07-10 03:54:00+00:00,251.0,5.84,247.0,6.86,12.41,47.59359,-54.27349
2022-07-10 04:04:00+00:00,253.0,6.6,253.0,7.19,12.41,47.59359,-54.27349
2022-07-10 04:14:01+00:00,256.0,6.58,252.0,7.52,12.41,47.59359,-54.27349
2022-07-10 04:24:01+00:00,272.0,5.77,274.0,6.66,12.41,47.59359,-54.27349
2022-07-10 04:34:01+00:00,273.0,6.54,278.0,7.21,12.41,47.59359,-54.27349
2022-07-10 04:44:01+00:00,266.0,7.87,264.0,8.32,12.41,47.59359,-54.27349
2022-07-10 04:54:01+00:00,264.0,7.92,264.0,8.45,12.41,47.59359,-54.27349
2022-07-10 05:04:01+00:00,259.0,7.3,258.0,8.05,12.41,47.59359,-54.27349
2022-07-10 05:14:00+00:00,259.0,7.44,257.0,8.37,12.33,47.59359,-54.27349
2022-07-10 05:24:00+00:00,263.0,8.16,265.0,8.72,12.33,47.59359,-54.27349
2022-07-10 05:34:00+00:00,262.0,7.71,259.0,8.41,12.33,47.59359,-54.27349
2022-07-10 05:44:00+00:00,257.0,7.67,261.0,9.98,12.33,47.59359,-54.27349
2022-07-10 05:54:00+00:00,253.0,8.08,256.0,10.03,12.33,47.59359,-54.27349
2022-07-10 06:04:00+00:00,255.0,8.21,259.0,10.15,12.33,47.59359,-54.27349
2022-07-10 06:14:00+00:00,254.0,8.16,256.0,9.7,12.33,47.59359,-54.27349
2022-07-10 06:24:00+00:00,254.0,8.18,258.0,9.8,12.33,47.59359,-54.27349
2022-07-10 06:34:00+00:00,258.0,8.93,260.0,10.81,12.33,47.59359,-54.27349
2022-07-10 06:44:00+00:00,260.0,9.39,258.0,10.76,12.33,47.59359,-54.27349
2022-07-10 06:54:00+00:00,258.0,9.2,258.0,10.83,12.33,47.59359,-54.27349
2022-07-10 07:04:00+00:00,258.0,8.78,257.0,10.38,12.33,47.59359,-54.27349
2022-07-10 07:14:00+00:00,257.0,9.85,257.0,10.69,12.25,47.59359,-54.27349
2022-07-10 07:24:00+00:00,258.0,9.76,261.0,10.55,12.25,47.59359,-54.27349
2022-07-10 07:34:00+00:00,251.0,8.9,252.0,10.65,12.25,47.59359,-54.27349
2022-07-10 07:44:00+00:00,245.0,9.0,246.0,10.63,12.25,47.59359,-54.27349
2022-07-10 07:54:00+00:00,247.0,9.6,244.0,11.36,12.25,47.59359,-54.27349
2022-07-10 08:04:00+00:00,247.0,9.34,247.0,10.8,12.25,47.59359,-54.27349
2022-07-10 08:14:00+00:00,246.0,9.17,248.0,10.88,12.17,47.59359,-54.27349
2022-07-10 08:24:00+00:00,246.0,9.6,250.0,10.88,12.17,47.59359,-54.27349
2022-07-10 08:34:00+00:00,248.0,9.4,249.0,10.92,12.17,47.59359,-54.27349
2022-07-10 08:44:00+00:00,251.0,9.89,248.0,10.91,12.17,47.59359,-54.27349
2022-07-10 08:54:00+00:00,249.0,9.45,252.0,10.98,12.17,47.59359,-54.27349
2022-07-10 09:04:00+00:00,244.0,7.14,252.0,10.46,12.17,47.59359,-54.27349
2022-07-10 09:14:00+00:00,253.0,9.34,246.0,10.81,12.81,47.59359,-54.27349
2022-07-10 09:24:00+00:00,235.0,7.46,243.0,10.17,12.81,47.59359,-54.27349
2022-07-10 09:34:00+00:00,234.0,8.96,239.0,11.49,12.81,47.59359,-54.27349
2022-07-10 09:44:00+00:00,240.0,9.84,243.0,11.55,12.81,47.59359,-54.27349
2022-07-10 09:54:00+00:00,236.0,7.79,243.0,11.47,12.81,47.59359,-54.27349
2022-07-10 10:04:00+00:00,233.0,10.74,237.0,12.04,12.81,47.59359,-54.27349
2022-07-10 10:14:00+00:00,238.0,8.71,239.0,11.22,13.37,47.59359,-54.27349
2022-07-10 10:24:00+00:00,239.0,9.88,237.0,11.49,13.37,47.59359,-54.27349
2022-07-10 10:34:00+00:00,238.0,10.18,238.0,11.69,13.37,47.59359,-54.27349
2022-07-10 10:44:00+00:00,239.0,9.73,232.0,11.54,13.37,47.59359,-54.27349
2022-07-10 10:54:00+00:00,238.0,10.19,234.0,11.69,13.37,47.59359,-54.27349
2022-07-10 11:04:00+00:00,235.0,10.3,235.0,11.98,13.37,47.59359,-54.27349
2022-07-10 11:14:00+00:00,234.0,9.97,232.0,11.86,13.53,47.59359,-54.27349
2022-07-10 11:24:00+00:00,235.0,9.23,233.0,11.38,13.53,47.59359,-54.27349
2022-07-10 11:34:00+00:00,235.0,9.65,237.0,11.49,13.53,47.59359,-54.27349
2022-07-10 11:44:00+00:00,233.0,9.55,236.0,11.71,13.53,47.59359,-54.27349
2022-07-10 11:54:00+00:00,226.0,10.1,233.0,11.89,13.53,47.59359,-54.27349
2022-07-10 12:04:00+00:00,226.0,9.85,220.0,12.2,13.53,47.59359,-54.27349
2022-07-10 12:14:00+00:00,224.0,9.97,218.0,11.98,13.76,47.59359,-54.27349
2022-07-10 12:24:00+00:00,223.0,9.1,218.0,10.81,13.76,47.59359,-54.27349
2022-07-10 12:34:00+00:00,224.0,9.14,228.0,10.99,13.76,47.59359,-54.27349
2022-07-10 12:44:00+00:00,212.0,7.92,224.0,9.75,13.76,47.59359,-54.27349
2022-07-10 12:54:00+00:00,217.0,7.39,219.0,8.72,13.76,47.59359,-54.27349
2022-07-10 13:04:00+00:00,204.0,10.0,220.0,11.97,13.76,47.59359,-54.27349
2022-07-10 13:14:00+00:00,210.0,12.09,220.0,14.36,14.0,47.59359,-54.27349
2022-07-10 13:24:00+00:00,215.0,12.74,216.0,14.85,14.0,47.59359,-54.27349
2022-07-10 13:34:00+00:00,218.0,13.2,217.0,15.39,14.0,47.59359,-54.27349
2022-07-10 13:44:00+00:00,215.0,12.9,216.0,15.39,14.0,47.59359,-54.27349
2022-07-10 13:54:00+00:00,214.0,12.67,221.0,14.46,14.0,47.59359,-54.27349
2022-07-10 14:04:00+00:00,213.0,12.81,217.0,15.01,14.0,47.59359,-54.27349
2022-07-10 14:14:00+00:00,209.0,11.87,214.0,15.15,14.08,47.59359,-54.27349
2022-07-10 14:24:00+00:00,217.0,14.32,214.0,15.73,14.08,47.59359,-54.27349
2022-07-10 14:34:00+00:00,210.0,14.16,213.0,15.99,14.08,47.59359,-54.27349
2022-07-10 14:44:00+00:00,213.0,11.72,218.0,14.62,14.08,47.59359,-54.27349
2022-07-10 14:54:00+00:00,213.0,13.68,213.0,15.46,14.08,47.59359,-54.27349
2022-07-10 15:04:00+00:00,231.0,9.52,239.0,11.03,14.08,47.59359,-54.27349
2022-07-10 15:14:00+00:00,221.0,8.16,225.0,10.02,13.6,47.59359,-54.27349
2022-07-10 15:24:00+00:00,249.0,11.01,252.0,13.42,13.6,47.59359,-54.27349
2022-07-10 15:34:00+00:00,252.0,11.22,249.0,13.27,13.6,47.59359,-54.27349
2022-07-10 15:44:00+00:00,253.0,13.4,249.0,15.14,13.6,47.59359,-54.27349
2022-07-10 15:54:00+00:00,252.0,11.19,262.0,14.14,13.6,47.59359,-54.27349
2022-07-10 16:04:00+00:00,248.0,12.09,253.0,14.63,13.6,47.59359,-54.27349
2022-07-10 16:14:01+00:00,247.0,12.25,247.0,14.19,14.0,47.59359,-54.27349
2022-07-10 16:24:01+00:00,249.0,9.93,245.0,11.71,14.0,47.59359,-54.27349
2022-07-10 16:34:01+00:00,251.0,8.57,250.0,9.55,14.0,47.59359,-54.27349
2022-07-10 16:44:01+00:00,249.0,12.01,248.0,13.97,14.0,47.59359,-54.27349
2022-07-10 16:54:01+00:00,249.0,11.39,253.0,13.1,14.0,47.59359,-54.27349
2022-07-10 17:04:01+00:00,238.0,9.6,232.0,11.27,14.0,47.59359,-54.27349
2022-07-10 17:14:00+00:00,233.0,9.36,234.0,11.1,14.16,47.59359,-54.27349
2022-07-10 17:24:00+00:00,238.0,10.13,234.0,11.74,14.16,47.59359,-54.27349
2022-07-10 17:34:00+00:00,240.0,9.97,245.0,12.1,14.16,47.59359,-54.27349
2022-07-10 17:44:00+00:00,243.0,9.97,234.0,11.28,14.16,47.59359,-54.27349
2022-07-10 17:54:00+00:00,240.0,9.23,242.0,10.98,14.16,47.59359,-54.27349
2022-07-10 18:04:00+00:00,248.0,8.9,247.0,10.0,14.16,47.59359,-54.27349
2022-07-10 18:14:00+00:00,250.0,8.33,251.0,9.59,13.84,47.59359,-54.27349
2022-07-10 18:24:00+00:00,249.0,9.27,241.0,11.05,13.84,47.59359,-54.27349
2022-07-10 18:34:00+00:00,245.0,8.54,246.0,9.32,13.84,47.59359,-54.27349
2022-07-10 18:44:00+00:00,238.0,9.23,243.0,10.49,13.84,47.59359,-54.27349
2022-07-10 18:54:00+00:00,251.0,9.33,254.0,10.55,13.84,47.59359,-54.27349
2022-07-10 19:04:00+00:00,244.0,9.06,238.0,10.57,13.84,47.59359,-54.27349
2022-07-10 19:14:01+00:00,254.0,7.99,250.0,8.88,13.68,47.59359,-54.27349
2022-07-10 19:24:01+00:00,243.0,9.22,244.0,11.49,13.68,47.59359,-54.27349
2022-07-10 19:34:01+00:00,247.0,9.25,241.0,11.05,13.68,47.59359,-54.27349
2022-07-10 19:44:01+00:00,245.0,7.14,249.0,8.2,13.68,47.59359,-54.27349
2022-07-10 19:54:01+00:00,247.0,7.19,255.0,9.29,13.68,47.59359,-54.27349
2022-07-10 20:04:01+00:00,243.0,9.03,242.0,10.18,13.68,47.59359,-54.27349
2022-07-10 20:14:01+00:00,244.0,8.47,248.0,9.51,13.6,47.59359,-54.27349
2022-07-10 20:24:01+00:00,247.0,8.82,247.0,9.85,13.6,47.59359,-54.27349
2022-07-10 20:34:01+00:00,241.0,9.71,239.0,11.29,13.6,47.59359,-54.27349
2022-07-10 20:44:01+00:00,238.0,9.08,242.0,10.07,13.6,47.59359,-54.27349
2022-07-10 20:54:01+00:00,238.0,8.1,239.0,9.58,13.6,47.59359,-54.27349
2022-07-10 21:04:01+00:00,234.0,7.66,232.0,8.46,13.6,47.59359,-54.27349
2022-07-10 21:14:01+00:00,232.0,7.41,234.0,8.37,13.53,47.59359,-54.27349
2022-07-10 21:24:01+00:00,237.0,7.81,237.0,8.75,13.53,47.59359,-54.27349
2022-07-10 21:34:01+00:00,235.0,7.38,236.0,8.41,13.53,47.59359,-54.27349
2022-07-10 21:44:01+00:00,235.0,6.97,237.0,8.16,13.53,47.59359,-54.27349
2022-07-10 21:54:01+00:00,238.0,7.85,249.0,8.86,13.53,47.59359,-54.27349
2022-07-10 22:04:01+00:00,245.0,9.0,248.0,10.18,13.53,47.59359,-54.27349
2022-07-10 22:14:00+00:00,248.0,7.96,252.0,9.01,13.37,47.59359,-54.27349
2022-07-10 22:24:00+00:00,244.0,7.8,243.0,8.6,13.37,47.59359,-54.27349
2022-07-10 22:34:00+00:00,249.0,8.39,255.0,10.22,13.37,47.59359,-54.27349
2022-07-10 22:44:00+00:00,245.0,7.53,251.0,8.48,13.37,47.59359,-54.27349
2022-07-10 22:54:00+00:00,245.0,7.4,247.0,8.64,13.37,47.59359,-54.27349
2022-07-10 23:04:00+00:00,253.0,7.79,248.0,8.53,13.37,47.59359,-54.27349
2022-07-10 23:14:00+00:00,248.0,7.52,245.0,8.04,13.13,47.59359,-54.27349
2022-07-10 23:24:00+00:00,248.0,6.93,247.0,7.58,13.13,47.59359,-54.27349
2022-07-10 23:34:00+00:00,253.0,6.32,251.0,6.98,13.13,47.59359,-54.27349
2022-07-10 23:44:00+00:00,249.0,6.32,248.0,6.96,13.13,47.59359,-54.27349
2022-07-10 23:54:00+00:00,248.0,6.18,250.0,6.93,13.13,47.59359,-54.27349
